Home   Weather   Dijon   Past weeks

Flag for France Past Weather in Dijon, Burgundy, France — Yesterday and Last 2 Weeks

Now
48 °F

Clear.


Feels Like: 48 °F
Forecast: 36 / 48 °F
Wind: 2 mph from North

Location: Dijon Airport

Current Time: Apr 25, 2017 at 5:14:37 am

Latest Report: Apr 25, 2017 at 4:30 am


Visibility: 10 mi

Pressure: 29.80 "Hg

Humidity: 66%

Dew Point: 37 °F

Location of DijonLocation

Past Weather in Dijon — Graph

°F

Dijon Temperature Yesterday

Maximum temperature yesterday: 68 °F (at 4:00 pm)
Minimum temperature yesterday: 37 °F (at 5:30 am)
Average temperature yesterday: 53 °F

High & Low Weather Summary for the Past Weeks

 TemperatureHumidityPressure
High75 °F (Apr 10, 1:30 pm)100% (Apr 10, 4:30 am)30.54 "Hg (Apr 10, 4:30 am)
Low27 °F (Apr 20, 6:00 am)17% (Apr 21, 4:30 pm)29.83 "Hg (Apr 24, 8:00 pm)
Average50 °F60%30.20 "Hg
* Reported Apr 10 3:00 am — Apr 25 3:30 am, Dijon, Weather by CustomWeather, © 2017

Note: Actual official high and low records may vary slightly from our data, if they occured in-between our weather recording intervals... More about our weather records

Advertising

Dijon Weather History for the Previous 24 Hours

Scroll right to see more
 ConditionsComfort  
Time TempWeatherWind HumidityBarometerVisibility
3:30 am
Tue, Apr 25
50 °FClear.3 mph62%29.83 "Hg10 mi
3:00 am50 °FPassing clouds.3 mph62%29.83 "HgN/A
2:30 am50 °FClear.2 mph67%29.83 "Hg10 mi
2:00 am52 °FClear.1 mph62%29.83 "Hg10 mi
1:30 am52 °FClear.No wind62%29.83 "Hg10 mi
1:00 am55 °FPassing clouds.8 mph47%29.83 "HgN/A
12:30 am55 °FClear.5 mph47%29.83 "Hg10 mi
12:00 am54 °FClear.2 mph54%29.86 "Hg10 mi
11:30 pm
Mon, Apr 24
57 °FPassing clouds.7 mph44%29.83 "HgN/A
11:00 pm57 °FClear.8 mph48%29.83 "Hg10 mi
10:00 pm55 °FClear.1 mph59%29.86 "Hg10 mi
9:30 pm59 °FClear.7 mph51%29.83 "Hg10 mi
9:00 pm57 °FClear.5 mph59%29.83 "Hg10 mi
8:30 pm63 °FSunny.5 mph49%29.83 "Hg10 mi
8:00 pm64 °FSunny.6 mph46%29.83 "Hg10 mi
7:30 pm66 °FSunny.7 mph43%29.86 "Hg10 mi
7:00 pm68 °FSunny.9 mph38%29.86 "Hg10 mi
6:30 pm68 °FSunny.9 mph40%29.86 "Hg10 mi
6:00 pm68 °FPassing clouds.8 mph38%29.86 "HgN/A
5:30 pm68 °FPassing clouds.12 mph38%29.89 "HgN/A
5:00 pm68 °FPassing clouds.10 mph35%29.89 "HgN/A
4:30 pm68 °FPassing clouds.9 mph38%29.89 "HgN/A
4:00 pm68 °FPassing clouds.6 mph35%29.92 "HgN/A
3:30 pm66 °FPassing clouds.7 mph37%29.92 "HgN/A
3:00 pm66 °FPassing clouds.7 mph35%29.95 "HgN/A
2:30 pm64 °FPassing clouds.8 mph34%29.98 "HgN/A
2:00 pm63 °FPassing clouds.7 mph37%29.98 "HgN/A
1:30 pm63 °FPassing clouds.7 mph37%30.01 "HgN/A
1:00 pm59 °FPassing clouds.5 mph42%30.01 "HgN/A
12:30 pm57 °FPassing clouds.5 mph44%30.04 "HgN/A
12:00 pm57 °FSunny.3 mph44%30.04 "Hg10 mi
11:30 am54 °FSunny.2 mph47%30.04 "Hg10 mi
11:00 am54 °FSunny.2 mph44%30.04 "Hg10 mi
10:30 am52 °FSunny.3 mph47%30.07 "Hg10 mi
10:00 am50 °FSunny.2 mph47%30.07 "Hg10 mi
9:30 am48 °FSunny.3 mph54%30.07 "Hg10 mi
9:00 am45 °FSunny.6 mph57%30.07 "Hg10 mi
8:30 am45 °FSunny.7 mph57%30.07 "Hg10 mi
8:00 am43 °FSunny.6 mph61%30.07 "Hg10 mi
7:30 am37 °FSunny.5 mph75%30.07 "Hg10 mi
7:00 am37 °FSunny.5 mph70%30.07 "Hg10 mi
6:30 am37 °FClear.5 mph70%30.07 "Hg10 mi
5:30 am37 °FClear.6 mph70%30.07 "Hg10 mi
Weather by CustomWeather, © 2017

See weather overviewHow to use our weather pages